User: anonymous   Login
Location: Lecco
(45.8566°N, 9.3977°E)
Time: 10:53:11
(UTC+02:00)
Language:

deb Explorer IX - Orbit

View from above orbital plane
View from above orbital plane
View from above satellite
View from above satellite

Ground track
Ground track

The orbit data is extracted from the following two-line orbital elements,

1    85U 61004C   19228.83103698 +.00001805 +00000-0 +39458-3 0  9990
2    85 038.7767 138.8676 0397269 263.8251 091.7107 14.19973962887633
Epoch (UTC): 16 August 2019 19:56:41
Eccentricity: 0.0397269
inclination: 38.7767°
perigee height: 539 km
apogee height: 1111 km
right ascension of ascending node: 138.8676°
argument of perigee: 263.8251°
revolutions per day: 14.19973962
mean anomaly at epoch: 91.7107°
orbit number at epoch: 88763

The dashed part of the orbit path shows where the satellite is in the earth's shadow,  

DLR